Location: Maiden
(35.5760°N, 81.2120°W)
Time: 00:08:48
(UTC-05:00)

Daily predictions for brighter satellites

Satellite Brightness Start Highest point End
(mag) Time Altitude Azimuth Time Altitude Azimuth Time Altitude Azimuth
CZ-3 R/B 4.3 02:28:05 10° WSW 03:18:40 62° S 03:30:46 10° E
COSMOS 2428 4.2 04:21:21 30° NE 04:21:21 30° NE 04:24:28 10° NE
H-2A R/B 3.9 04:23:08 10° NE 04:27:19 27° E 04:31:33 10° SSE
Milstar 3 Cent rocket 4.0 04:29:20 21° SSE 04:29:20 21° SSE 04:31:58 10° SE
COSMOS 2455 4.1 04:32:41 32° SSE 04:32:41 32° SSE 04:35:43 10° SSE
Cosmos 2237 Rocket 4.4 04:32:02 10° SSE 04:36:23 23° E 04:40:44 10° NE
ARIANE 5 R/B 3.5 04:41:35 10° NNE 04:46:35 45° E 04:51:33 10° S
Meteor 2-3 Rocket 3.5 05:01:06 10° S 05:06:41 89° WNW 05:12:17 10° N
Cosmos 2219 Rocket 4.4 05:13:02 12° N 05:13:02 12° N 05:13:32 10° N
SL-19 R/B 4.4 05:03:45 10° NNE 05:09:04 67° ESE 05:14:12 10° S
USA 215 4.5 05:05:40 10° ENE 05:11:43 39° SE 05:17:43 10° SSW
Cosmos 1933 3.8 05:13:39 58° E 05:13:39 58° E 05:17:31 10° SSE
Cosmos 1437 Rocket 4.5 05:17:42 10° SSE 05:20:59 30° E 05:24:14 10° NNE
CZ-3 Stage 3 3.0 05:23:06 20° S 05:23:06 20° S 05:24:20 10° SSE
Cosmos 2034 Rocket 4.1 05:18:14 10° SSW 05:24:23 52° W 05:30:31 10° N
Helios 1A 2.9 05:21:20 10° SSE 05:25:26 84° ENE 05:26:10 60° N
Cosmos 1782 3.1 05:29:25 49° SSW 05:29:25 49° SSW 05:32:20 10° S
NOSS 0 Rocket 3.8 05:22:24 10° SSW 05:28:38 80° WNW 05:34:54 10° NNE
Cosmos 2221 3.0 05:30:08 13° N 05:33:48 59° E 05:38:00 10° SSE
IRS-1C 4.2 05:32:08 10° N 05:37:19 53° WNW 05:42:28 10° SSW
OAO 1 Rocket 4.4 05:36:40 44° W 05:38:24 84° S 05:43:45 10° E
ATLAS 5 CENTAUR R/B 2.7 05:37:20 10° S 05:40:21 32° ESE 05:43:29 10° NE
SKYMED 2 3.6 05:38:51 10° SSE 05:43:10 79° ENE 05:47:13 12° N
Cosmos 2026 Rocket 3.9 05:37:07 10° N 05:43:29 81° W 05:49:45 10° S
ERS-2 4.1 05:42:00 10° NE 05:44:27 24° E 05:46:53 10° SSE
Cosmos 1110 Rocket 4.0 05:40:25 16° NNW 05:44:45 84° ENE 05:50:01 10° SSE
Cosmos 2195 Rocket 4.5 05:45:12 10° NNW 05:51:11 57° W 05:57:07 10° SSW
Cosmos 1544 2.5 05:48:13 10° S 05:51:24 75° W 05:54:36 10° N
Cosmos 2151 2.8 05:51:17 10° S 05:55:27 83° W 05:59:41 10° N
Cosmos 1980 3.6 05:49:53 10° SSW 05:55:28 64° WNW 06:01:06 10° NNE
Helios 1B rocket 3.6 05:53:54 10° NNE 05:57:43 44° E 06:01:31 10° S
ARGOS 3.1 05:53:34 10° NNE 05:58:58 85° WNW 06:04:18 10° SSW
GENESIS II 4.4 05:58:27 31° WSW 05:59:43 42° WNW 06:03:25 10° NNE
Sakura Rocket 4.3 05:56:33 17° WSW 05:59:55 36° S 06:03:44 10° ESE
Cosmos 1953 Rocket 3.8 05:57:04 10° SSW 06:01:20 45° W 06:05:39 10° N
Chandra Rocket (1) 4.4 06:00:48 10° SSW 06:02:30 12° S 06:04:47 10° SSE
Aureole 2 3.8 06:01:59 30° NNW 06:03:18 83° WSW 06:06:10 10° SSE
COSMOS 2428 3.8 06:03:29 22° WNW 06:03:29 22° WNW 06:07:53 10° N
Cosmos 1092 Rocket 4.1 05:58:28 10° NNW 06:04:29 52° W 06:10:32 10° SSW
H-2A R/B 2.7 06:02:24 10° NNW 06:06:37 29° WNW 06:10:53 10° SW
Cosmos 1461 2.9 06:03:28 10° SSW 06:07:57 79° WNW 06:12:23 10° NNE
ATLAS 2A CENTAUR R/B 4.0 06:06:55 11° WSW 06:08:39 13° SW 06:10:14 10° S
FengYun 1-2 T 4.3 06:03:41 10° N 06:09:08 57° WNW 06:14:31 10° SSW
PSLV R/B 3.4 06:05:35 10° N 06:09:52 73° WNW 06:14:06 10° SSW
Cosmos 1634 Rocket 4.2 06:04:31 10° SSW 06:10:22 44° W 06:16:17 10° N
OAO 3 Rocket 3.2 06:07:19 22° W 06:10:27 85° S 06:15:23 10° E
BREEZE-M DEB (TANK) 4.4 06:08:43 20° WNW 06:13:00 52° SW 06:32:37 10° SSE
USA 281 3.6 06:08:18 10° N 06:14:18 39° WNW 06:20:17 10° SW
Cosmos 2278 Rocket 2.1 06:13:11 10° NNW 06:18:50 76° WSW 06:24:27 10° SSE
Atlas Centaur 2 2.5 06:15:51 10° SW 06:19:01 31° S 06:22:23 10° ESE
Cosmos 2237 Rocket 2.5 06:14:46 10° SW 06:20:06 41° WNW 06:25:26 10° N
SL-08 RB Rocket 3.7 06:17:54 10° N 06:22:27 60° WNW 06:27:00 10° SSW
Cosmos 1452 Rocket 4.1 06:18:52 13° NW 06:23:04 35° W 06:27:45 10° SSW
Cosmos 1378 2.8 06:20:47 10° N 06:24:15 82° W 06:27:41 10° S
Cosmos 614 Rocket 3.9 06:19:54 10° SSW 06:25:05 84° WNW 06:30:20 10° NNE
ARIANE 5 R/B 3.7 06:21:34 10° NNW 06:25:15 20° WNW 06:28:58 10° WSW
Cosmos 1515 4.3 06:22:28 12° NNW 06:25:16 30° W 06:28:28 10° SSW
Geosat 4.5 06:22:27 10° N 06:27:02 37° WNW 06:31:36 10° SW
Cosmos 2279 Rocket 4.2 06:24:18 10° SSW 06:30:17 47° W 06:36:19 10° N
COSMO-SKYMED 1 3.5 06:27:38 10° SSW 06:31:19 27° W 06:35:02 10° NW
Cosmos 1666 2.8 06:29:53 10° SSW 06:33:15 44° W 06:36:39 10° N
SJ-11-01 4.3 06:29:54 10° N 06:34:31 61° WNW 06:39:08 10° SSW
Meteor 1-31 Rocket 3.5 06:32:40 10° NNE 06:36:25 57° E 06:40:09 10° S
Cosmos 1842 Rocket 4.2 06:46:43 10° NNW 06:50:46 35° W 06:54:48 10° SSW
USA 215 3.4 06:48:27 10° NE 06:54:44 52° NW 07:01:00 10° WSW
Meteor 1-10 Rocket 4.3 06:52:00 10° NNW 06:57:45 68° W 07:03:21 10° S
CZ-3 R/B 2.8 06:50:24 10° W 07:03:36 43° SSW 07:08:26 10° SE
